This demonstration page uses our WeatherBlox Daily Observations layout. Learn more.

Left ArrowRight Arrow

Hourly Observations for January 3, 2020

Temp ( °F °C ) Dew Point ( °F °C ) Humidity (%) Winds ( mph kmh ) Pressure ( in mb ) Visibility ( mi km ) Precip ( " mm )
12:39 am 00:39 Cloudy with Light Rain 50 10 48 8.9 93 93 VRB 3 6 29.89 1012 10 16 0.00 0.00
12:53 am 00:53 Cloudy 51 10.6 49 9.4 92 92 SSE 8 13 29.86 1011 10 16 0.00 0.00
1:53 am 01:53 Cloudy 53 11.7 52 11.1 96 96 VRB 3 6 29.85 1011 10 16 0.00 0.00
2:15 am 02:15 Cloudy with Mist and Fog 53 11.7 52 11.1 96 96 VRB 3 6 29.85 1011 6 10 0.00 0.00
2:53 am 02:53 Cloudy 56 13.3 55 12.8 97 97 SSE 6 9 29.84 1011 7 11 0.00 0.00
3:43 am 03:43 Cloudy with Mist and Fog 54 12.2 53 11.7 97 97 NE 5 7 29.86 1011 3 4 0.00 0.00
3:53 am 03:53 Cloudy with Mist and Fog 54 12.2 53 11.7 97 97 NE 3 6 29.85 1011 2 3 0.00 0.00
4:00 am 04:00 Cloudy with Mist and Fog 54 12.2 53 11.7 97 97 ENE 5 7 29.86 1011 2 2 0.00 0.00
4:53 am 04:53 Cloudy with Mist and Fog 54 12.2 54 12.2 100 100 NE 5 7 29.85 1011 2 3 0.00 0.00
5:12 am 05:12 Mostly Cloudy with Mist and Fog 54 12.2 54 12.2 100 100 Calm 29.86 1011 1 1 0.00 0.00
5:35 am 05:35 Mostly Cloudy with Fog 54 12.2 53 11.7 97 97 Calm 29.85 1011 1 1 0.00 0.00
5:53 am 05:53 Mostly Cloudy with Fog 54 12.2 54 12.2 100 100 N 3 6 29.85 1011 1 1 0.00 0.00
6:53 am 06:53 Mostly Cloudy with Light Rain 54 12.2 54 12.2 100 100 NE 3 6 29.85 1011 1 1 0.00 0.00
7:06 am 07:06 Mostly Cloudy with Light Rain 54 12.2 53 11.7 97 97 NE 6 9 29.85 1011 1 1 0.01 0.25
7:19 am 07:19 Mostly Cloudy with Mist and Fog 54 12.2 54 12.2 100 100 NE 5 7 29.85 1011 1 2 0.01 0.25
7:27 am 07:27 Cloudy with Mist and Fog 54 12.2 53 11.7 97 97 NNE 5 7 29.85 1011 1 2 0.01 0.25
7:48 am 07:48 Cloudy with Light Rain 54 12 54 12 100 100 NNE 5 7 29.86 1011 2 2 0.01 0.25
7:53 am 07:53 Cloudy with Rain 54 12.2 53 11.7 97 97 NNE 5 7 29.85 1011 2 2 0.03 0.76
8:15 am 08:15 Cloudy with Heavy Rain 54 12.2 53 11.7 97 97 NE 6 9 29.85 1011 2 3 0.10 2.54
8:33 am 08:33 Cloudy with Heavy Rain 55 12.8 54 12.2 96 96 NW 14 22 29.87 1012 1 2 0.37 9.40
8:46 am 08:46 Cloudy with Heavy Rain 56 13.3 55 12.8 97 97 NNE 3 6 29.87 1011 1 1 0.98 24.89
8:53 am 08:53 Cloudy with Heavy Rain 56 13.3 55 12.8 97 97 NNE 6 9 29.87 1011 1 1 1.13 28.70
8:57 am 08:57 Cloudy with Heavy Rain 56 13.3 55 12.8 97 97 NE 8 13 29.86 1011 2 2 0.05 1.27
9:05 am 09:05 Cloudy with Rain 56 13.3 55 12.8 97 97 NNE 6 9 29.86 1011 3 5 0.07 1.78
9:19 am 09:19 Cloudy with Rain 56 13.3 55 12.8 97 97 VRB 3 6 29.87 1011 4 6 0.11 2.79
9:24 am 09:24 Cloudy with Light Rain 56 13.3 55 12.8 97 97 E 6 9 29.86 1011 6 10 0.11 2.79
9:34 am 09:34 Cloudy with Light Rain 56 13.3 55 12.8 97 97 ENE 5 7 29.87 1011 9 14 0.12 3.05
9:45 am 09:45 Cloudy with Light Rain 56 13.3 55 12.8 97 97 N 3 6 29.88 1012 3 5 0.13 3.30
9:53 am 09:53 Cloudy with Light Rain 56 13.3 55 12.8 97 97 Calm 29.87 1012 6 10 0.13 3.30
10:53 am 10:53 Cloudy 56 13.3 55 12.8 97 97 N 5 7 29.87 1012 10 16 0.00 0.00
11:53 am 11:53 Cloudy with Light Rain 57 13.9 55 12.8 93 93 Calm 29.86 1011 7 11 0.00 0.00
12:53 pm 12:53 Cloudy 57 13.9 56 13.3 96 96 Calm 29.85 1011 10 16 0.01 0.25
1:41 pm 13:41 Cloudy with Light Rain 59 15 57 13.9 93 93 Calm 29.82 1010 9 14 0.01 0.25
1:53 pm 13:53 Cloudy 59 15 57 13.9 93 93 Calm 29.82 1010 10 16 0.01 0.25
2:00 pm 14:00 Cloudy 59 15 58 14.4 96 96 Calm 29.82 1010 10 16 0.00 0.00
2:15 pm 14:15 Cloudy 59 15 58 14.4 96 96 E 5 7 29.82 1010 10 16 0.00 0.00
2:39 pm 14:39 Cloudy with Light Rain 59 15 57 13.9 93 93 Calm 29.82 1010 7 11 0.00 0.00
2:53 pm 14:53 Cloudy 59 15 58 14.4 96 96 Calm 29.82 1010 10 16 0.00 0.00
3:53 pm 15:53 Cloudy with Rain 61 16.1 59 15 93 93 NW 3 6 29.87 1011 3 4 0.04 1.02
4:07 pm 16:07 Cloudy with Light Rain 60 15.6 59 15 96 96 Calm 29.87 1012 5 8 0.01 0.25
4:53 pm 16:53 Cloudy with Rain 60 15.6 59 15 96 96 Calm 29.88 1012 3 5 0.03 0.76
5:53 pm 17:53 Cloudy with Light Rain 60 15.6 58 14.4 93 93 Calm 29.87 1012 10 16 0.01 0.25
6:53 pm 18:53 Cloudy 60 15.6 58 14.4 93 93 Calm 29.87 1012 10 16 0.01 0.25
7:53 pm 19:53 Cloudy 59 15 57 13.9 93 93 WSW 5 7 29.91 1013 10 16 0.00 0.00
8:53 pm 20:53 Cloudy 59 15 57 13.9 93 93 Calm 29.91 1013 10 16 0.00 0.00
9:53 pm 21:53 Cloudy 59 15 57 13.9 93 93 Calm 29.90 1013 10 16 0.00 0.00
10:53 pm 22:53 Cloudy with Light Rain 58 14.4 57 13.9 97 97 Calm 29.92 1013 10 16 0.00 0.00
11:11 pm 23:11 Cloudy 58 14.4 57 13.9 97 97 Calm 29.93 1013 8 13 0.00 0.00
11:50 pm 23:50 Cloudy with Light Rain 57 14 57 14 100 100 Calm 29.91 1013 10 16 0.00 0.00
11:53 pm 23:53 Cloudy 58 14.4 57 13.9 97 97 Calm 29.90 1013 10 16 0.00 0.00

Powered by AerisWeather